[[{"header":{"parameterUnit":"m.s-1","parameterCategory":1,"la1":30.2991,"la2":30.254,"lo1":-89.0895,"lo2":-89.0444,"dy":0.0017,"dx":0.0017,"nx":28,"ny":28,"refTime":"2024-08-01T21:00:00:Z","depth":0,"parameterNumber":2,"parameterNumberName":"U-component_of_WINDS"},"data":[0,0,0,0,0,0,0,0,0,0,0,0,0,0,0,0,0,0,0,0,0,0,0,0,0,0,0,0,0,0,0,0,0,0,0,0,0,0,0,0,0,0,0,0,0,0,0,0,0,0,0,0,0,0,0,0,0,0,4.0735,4.0736,0,4.086,4.0861,4.0863,4.0786,4.0782,4.0778,4.0775,4.0906,4.0913,4.092,0,0,0,0,0,0,0,0,0,0,0,0,0,4.0432,4.0438,4.0735,4.0737,4.0738,4.086,4.0861,4.0863,4.0786,4.0782,4.0777,4.0773,4.0904,4.0912,4.092,0,0,0,0,0,0,0,0,0,0,0,0,0,4.0561,4.044,4.0735,4.0714,4.0714,4.0859,4.0861,4.0863,4.0787,4.0782,4.0776,4.0771,4.0901,4.0911,4.0921,4.1095,0,0,4.0953,4.0958,0,0,0,0,0,0,0,0,4.0554,4.0573,4.0716,4.0716,4.0716,4.0801,4.0803,4.0941,4.0789,4.076,4.0775,4.0769,4.0876,4.0888,4.0924,4.1101,4.1107,4.0954,4.096,4.0965,4.0968,0,0,0,0,0,0,0,4.0545,4.0567,4.0784,4.0718,4.0718,4.07,4.0712,4.0829,4.0847,4.0762,4.0756,4.0772,4.0875,4.0914,4.0926,4.1109,4.0954,4.0963,4.0969,4.0973,4.1433,4.1439,0,0,0,0,0,0,4.0538,4.056,4.078,4.0788,4.062,4.071,4.0723,4.078,4.0846,4.085,4.0777,4.0768,4.0899,4.0914,4.093,4.1136,4.0965,4.0974,4.098,4.1427,4.1434,4.1441,0,0,0,0,0,0,4.0531,4.0558,4.0775,4.0673,4.0699,4.0721,4.0784,4.0785,4.0824,4.0857,4.086,4.0813,4.0895,4.0916,4.1054,4.114,4.0979,4.0988,4.142,4.1429,4.1438,4.1551,0,0,0,0,0,0,4.0523,4.0556,4.0622,4.0675,4.0705,4.0897,4.079,4.0791,4.0841,4.0831,4.0892,4.0896,4.0892,4.1039,4.1064,4.1151,4.0996,4.1412,4.1424,4.1435,4.154,4.1563,4.1582,0,0,0,0,0,4.0513,4.065,4.0626,4.0653,4.0787,4.0902,4.0919,4.0911,4.0849,4.0915,4.0936,4.0894,4.1127,4.1054,4.1082,4.1173,4.1407,4.1421,4.1434,4.153,4.1558,4.1582,0,0,0,0,0,0,4.0608,4.0657,4.063,4.0789,4.0841,4.0888,4.0972,4.0941,4.1014,4.1001,4.0989,4.1003,4.1147,4.1174,4.1092,4.1344,4.1257,4.1277,4.1321,4.1348,4.1369,4.1359,4.1005,0,0,0,0,0,4.0648,4.0736,4.0774,4.091,4.0938,4.0951,4.1,4.0989,4.1044,4.1066,4.1097,4.1153,4.1238,4.1294,4.1375,4.1543,4.1555,4.162,4.1641,4.1659,4.1676,4.1765,4.1794,4.1485,4.1485,4.1485,0,0,4.073,4.0768,4.0824,4.093,4.097,4.1061,4.097,4.1071,4.1139,4.1082,4.1213,4.1238,4.1299,4.1453,4.1522,4.148,4.1764,4.1676,4.169,4.1697,4.1782,4.1811,4.1837,4.1494,4.1493,4.1491,0,0,4.0928,4.0965,4.1082,4.1123,4.1183,4.1191,4.1219,4.1271,4.1284,4.1416,4.1374,4.1455,4.1603,4.1647,4.169,4.1903,4.1867,4.1929,4.2041,4.2129,4.2153,4.2174,4.2249,4.2276,4.1946,4.1947,4.1947,0,4.1023,4.1159,4.1146,4.125,4.1298,4.1248,4.1366,4.1407,4.1492,4.1526,4.1477,4.166,4.1698,4.186,4.1912,4.1948,4.1979,4.1922,4.215,4.2172,4.2192,4.2263,4.2291,4.1954,4.1953,4.1952,4.1952,0,4.1272,4.1367,4.1455,4.1535,4.1593,4.1704,4.1708,4.1768,4.1752,4.1764,4.1898,4.1942,4.2029,4.2067,4.2054,4.2228,4.22,4.2151,4.2064,4.2228,4.2295,4.2322,4.1964,4.1961,4.1959,4.1957,0,0,4.1534,4.1605,4.1637,4.1672,4.1735,4.1809,4.1917,4.2001,4.2052,4.2112,4.2202,4.2328,4.2283,4.233,4.2321,4.2398,4.2562,4.234,4.2341,4.2378,4.2756,4.2791,4.2823,4.2539,4.2544,4.2548,4.275,0,4.1734,4.1921,4.1912,4.2089,4.2176,4.2129,4.2224,4.2273,4.2288,4.2364,4.238,4.2469,4.2403,4.2431,4.2506,4.2527,4.2638,4.2512,4.2623,4.2627,4.2607,4.2858,4.2896,4.3084,4.2776,4.2781,4.2784,0,4.1992,4.2058,4.2243,4.2291,4.2327,4.2412,4.2487,4.2561,4.2616,4.2621,4.2674,4.2652,4.2761,4.2672,4.2823,4.2737,4.2782,4.2799,4.2806,4.2815,4.2715,4.2873,4.3144,4.3172,4.2825,4.2822,4.2819,0,4.2162,4.2298,4.2425,4.2458,4.2517,4.2578,4.2606,4.2655,4.2705,4.2772,4.2805,4.2884,4.2927,4.2989,4.2989,4.2924,4.3142,4.3052,4.3149,4.3149,4.3196,4.3193,4.3477,4.3227,4.3227,4.3226,4.3226,0,4.2386,4.25,4.2502,4.2581,4.2707,4.2696,4.2822,4.2844,4.2888,4.297,4.2935,4.3013,4.3008,4.3087,4.3088,4.3212,4.3233,4.324,4.3238,4.3242,4.3241,4.3271,4.3257,4.3234,4.3232,4.3231,4.3229,0,4.2597,4.2604,4.2739,4.2784,4.2798,4.2889,4.2928,4.3002,4.3013,4.3117,4.3141,4.3159,4.325,4.3256,4.3362,4.3362,4.3512,4.3497,4.3493,4.349,4.3586,4.3576,4.3899,4.394,4.3664,4.3667,4.3669,0,4.2739,4.2825,4.2879,4.293,4.2961,4.3046,4.3096,4.3089,4.3144,4.3211,4.3278,4.3365,4.3434,4.3582,4.3605,4.3685,4.3671,4.3778,4.3683,4.3683,4.3671,4.3665,4.3673,4.3796,4.3799,4.3802,4.3804,0,4.2989,4.2987,4.3061,4.3137,4.3198,4.3258,4.3313,4.3358,4.3357,4.342,4.3511,4.3565,4.3672,4.3759,4.3837,4.3866,4.3835,4.3834,4.386,4.3864,4.3858,4.3861,4.3543,4.3826,4.3824,4.3822,4.3821,4.382,4.3169,4.3243,4.3292,4.3375,4.3416,4.3468,4.3539,4.3558,4.3634,4.3719,4.3711,4.3812,4.3864,4.3965,4.4,4.408,4.4043,4.4082,4.4091,4.4101,4.411,4.3846,4.4094,4.4094,4.4093,4.4093,4.4092,0,4.3416,4.3445,4.3522,4.3599,4.3665,4.3629,4.3688,4.3745,4.3834,4.3884,4.3952,4.4057,4.4141,4.417,4.4251,4.4309,4.4297,4.4331,4.4326,4.4333,4.4139,4.4107,4.4339,4.4339,4.4339,4.4339,4.4339,4.4339,4.3552,4.3675,4.3679,4.3821,4.3849,4.3947,4.3984,4.4032,4.4071,4.4189,4.4258,4.4276,4.4317,4.4401,4.4476,4.4483,4.4514,4.4553,4.4554,4.4372,4.4347,4.4323,4.4293,4.4561,4.4561,4.4741,4.4743,4.4744]},{"header":{"parameterUnit":"m.s-1","parameterCategory":1,"la1":30.2991,"la2":30.254,"lo1":-89.0895,"lo2":-89.0444,"dy":0.0017,"dx":0.0017,"nx":28,"ny":28,"refTime":"2024-08-01T21:00:00:Z","depth":0,"parameterNumber":3,"parameterNumberName":"V-component_of_WINDS"},"data":[0,0,0,0,0,0,0,0,0,0,0,0,0,0,0,0,0,0,0,0,0,0,0,0,0,0,0,0,0,0,0,0,0,0,0,0,0,0,0,0,0,0,0,0,0,0,0,0,0,0,0,0,0,0,0,0,0,0,0.6844,0.6845,0,0.6905,0.6906,0.6907,0.6924,0.6923,0.6923,0.6923,0.6987,0.6989,0.6991,0,0,0,0,0,0,0,0,0,0,0,0,0,0.6741,0.6743,0.6844,0.6845,0.6845,0.6905,0.6906,0.6907,0.6924,0.6923,0.6923,0.6922,0.6986,0.6989,0.6991,0,0,0,0,0,0,0,0,0,0,0,0,0,0.6793,0.6744,0.6844,0.6861,0.6863,0.6905,0.6906,0.6907,0.6924,0.6923,0.6923,0.6922,0.6986,0.6989,0.6992,0.7021,0,0,0.7001,0.7002,0,0,0,0,0,0,0,0,0.679,0.6796,0.6858,0.686,0.6862,0.6906,0.6894,0.6946,0.6924,0.6901,0.6923,0.6922,0.6961,0.6966,0.6979,0.7024,0.7027,0.7001,0.7003,0.7004,0.7005,0,0,0,0,0,0,0,0.6786,0.6794,0.6868,0.6859,0.6861,0.6866,0.6872,0.6904,0.6933,0.6903,0.6904,0.6911,0.6962,0.6976,0.698,0.7028,0.7001,0.7004,0.7006,0.7007,0.71,0.7101,0,0,0,0,0,0,0.6779,0.6791,0.6866,0.687,0.6824,0.6868,0.6875,0.6893,0.6933,0.6938,0.6911,0.6912,0.6971,0.6977,0.6983,0.7019,0.7004,0.7007,0.7009,0.7099,0.71,0.7101,0,0,0,0,0,0,0.6777,0.6786,0.6864,0.6831,0.6841,0.687,0.689,0.6894,0.6908,0.6939,0.6945,0.692,0.697,0.6978,0.7011,0.7022,0.7009,0.7011,0.7099,0.71,0.71,0.7094,0,0,0,0,0,0,0.6774,0.6785,0.6797,0.6831,0.6843,0.6892,0.689,0.6896,0.6913,0.6914,0.6949,0.6954,0.6971,0.7006,0.7014,0.7026,0.7014,0.7098,0.7099,0.71,0.7093,0.7094,0.7095,0,0,0,0,0,0.677,0.6793,0.6797,0.6806,0.6858,0.6892,0.6899,0.6917,0.6914,0.6926,0.6946,0.6953,0.7019,0.701,0.7019,0.7031,0.7097,0.7099,0.71,0.7093,0.7094,0.7095,0,0,0,0,0,0,0.6761,0.6798,0.6803,0.6838,0.6861,0.6895,0.6911,0.6918,0.6944,0.6944,0.6965,0.6973,0.7004,0.7021,0.701,0.7061,0.7058,0.7062,0.705,0.7051,0.7052,0.7048,0.7016,0,0,0,0,0,0.6762,0.6787,0.6818,0.6846,0.6857,0.6882,0.6897,0.6909,0.6935,0.6945,0.6967,0.6992,0.7019,0.7036,0.7062,0.7095,0.7103,0.7108,0.7109,0.711,0.7113,0.713,0.7133,0.7105,0.7105,0.7105,0,0,0.6767,0.679,0.6804,0.6844,0.6864,0.6889,0.689,0.6917,0.6935,0.6949,0.6982,0.6999,0.7028,0.7061,0.7076,0.7076,0.7122,0.7112,0.7112,0.7115,0.7132,0.7135,0.7137,0.7106,0.7106,0.7106,0,0,0.6787,0.6807,0.6832,0.6851,0.688,0.6896,0.6902,0.6934,0.6946,0.6978,0.6989,0.7011,0.7056,0.7076,0.7092,0.7117,0.7125,0.7125,0.7131,0.7148,0.715,0.7152,0.7161,0.7164,0.7128,0.7128,0.7128,0,0.6789,0.6826,0.6843,0.6869,0.6886,0.6898,0.6923,0.6941,0.6978,0.6989,0.6987,0.7043,0.7064,0.7101,0.7107,0.712,0.7126,0.7122,0.7148,0.7151,0.7153,0.7161,0.7164,0.7127,0.7127,0.7127,0.7127,0,0.6826,0.6852,0.6868,0.6902,0.6921,0.6946,0.6966,0.6983,0.6992,0.7008,0.704,0.7065,0.7096,0.7105,0.7115,0.7144,0.7142,0.7144,0.7141,0.7155,0.7163,0.7166,0.7127,0.7127,0.7127,0.7127,0,0,0.6844,0.6885,0.6891,0.6906,0.6939,0.6959,0.6984,0.7013,0.7026,0.7051,0.7072,0.7109,0.711,0.7128,0.714,0.7155,0.7172,0.7155,0.7156,0.7157,0.7204,0.7203,0.7206,0.7177,0.7178,0.7178,0.7202,0,0.6868,0.6913,0.6928,0.6965,0.6989,0.7,0.7021,0.7043,0.7058,0.708,0.7097,0.7122,0.7123,0.7134,0.7149,0.7167,0.7182,0.7166,0.7197,0.7198,0.719,0.721,0.7209,0.723,0.7205,0.7206,0.7206,0,0.6903,0.6926,0.6965,0.6993,0.7004,0.7023,0.705,0.7071,0.7096,0.7105,0.7124,0.7135,0.7161,0.7155,0.7191,0.718,0.7193,0.7204,0.7205,0.7209,0.7203,0.7215,0.7237,0.724,0.7211,0.7211,0.721,0,0.6911,0.6953,0.6981,0.6994,0.7027,0.704,0.7055,0.7079,0.7095,0.7118,0.7129,0.7155,0.717,0.719,0.7207,0.7202,0.7241,0.7237,0.7249,0.7249,0.7258,0.7257,0.7283,0.7266,0.7266,0.7266,0.7266,0,0.6937,0.696,0.6985,0.7003,0.7029,0.7046,0.7071,0.7086,0.7107,0.7128,0.7139,0.7158,0.7179,0.7201,0.7214,0.7241,0.7248,0.7256,0.7259,0.7255,0.7254,0.7265,0.7264,0.7267,0.7267,0.7266,0.7266,0,0.6951,0.6969,0.7,0.7029,0.7036,0.7054,0.7079,0.7096,0.711,0.7136,0.7143,0.7166,0.7192,0.721,0.7244,0.7252,0.7281,0.7285,0.7273,0.7275,0.7286,0.7284,0.7319,0.7324,0.7304,0.7304,0.7304,0,0.6967,0.6985,0.7014,0.7028,0.7043,0.7066,0.7081,0.7098,0.7114,0.7143,0.7156,0.7182,0.7204,0.7245,0.7264,0.729,0.7294,0.7304,0.7298,0.7292,0.7294,0.7292,0.7294,0.7305,0.7305,0.7306,0.7306,0,0.6992,0.6999,0.7021,0.7046,0.7064,0.7085,0.7106,0.7117,0.7137,0.7154,0.718,0.7197,0.723,0.7256,0.7283,0.7298,0.7305,0.7307,0.7311,0.7307,0.73,0.7304,0.7276,0.7307,0.7307,0.7306,0.7306,0.7306,0.7007,0.7023,0.7046,0.707,0.7087,0.7106,0.7123,0.7139,0.716,0.7188,0.7197,0.7223,0.7246,0.7283,0.7298,0.7319,0.7318,0.7324,0.7326,0.7327,0.7327,0.7296,0.7324,0.7324,0.7324,0.7324,0.7324,0,0.7033,0.7048,0.7069,0.7097,0.7116,0.712,0.7142,0.7158,0.7181,0.7201,0.7222,0.7251,0.7275,0.7296,0.7321,0.7334,0.7338,0.734,0.7339,0.7343,0.7326,0.732,0.7336,0.7336,0.7336,0.7336,0.7336,0.7336,0.7048,0.7075,0.7085,0.712,0.7135,0.716,0.7173,0.719,0.7206,0.7237,0.7258,0.7271,0.7291,0.7317,0.734,0.7345,0.7354,0.7355,0.7361,0.7345,0.7344,0.7342,0.7337,0.7357,0.7357,0.7376,0.7376,0.7377]}]]